Time,TemperatureF,DewpointF,PressureIn,WindDirection,WindDirectionDegrees,WindSpeedMPH,WindSpeedGustMPH,Humidity,HourlyPrecipIn,Conditions,Clouds,dailyrainin,SoftwareType,DateUTC
2013-01-24 00:00:00,18.6,9.0,30.20,SW,232,3.0,8.0,67,0.00,,,0.00,weatherlink.com 1.10,2013-01-24 05:00:00,
2013-01-24 00:15:00,18.4,9.0,30.22,WSW,250,2.0,5.0,68,0.00,,,0.00,weatherlink.com 1.10,2013-01-24 05:15:00,
2013-01-24 00:30:00,18.3,10.0,30.22,SW,232,6.0,7.0,70,0.00,,,0.00,weatherlink.com 1.10,2013-01-24 05:30:00,
2013-01-24 00:44:00,18.1,10.0,30.22,SSW,213,1.0,7.0,71,0.00,,,0.00,weatherlink.com 1.10,2013-01-24 05:44:00,
2013-01-24 01:00:00,17.9,11.0,30.23,WSW,250,3.0,6.0,74,0.00,,,0.00,weatherlink.com 1.10,2013-01-24 06:00:00,
2013-01-24 01:15:00,17.6,12.0,30.24,WSW,238,2.0,7.0,78,0.00,,,0.00,weatherlink.com 1.10,2013-01-24 06:15:00,
2013-01-24 01:30:00,17.6,12.0,30.26,WSW,238,3.0,8.0,80,0.00,,,0.00,weatherlink.com 1.10,2013-01-24 06:30:00,
2013-01-24 01:46:00,17.7,13.0,30.27,WSW,245,1.0,7.0,82,0.00,,,0.00,weatherlink.com 1.10,2013-01-24 06:46:00,
2013-01-24 02:01:00,17.7,14.0,30.29,SW,233,2.0,7.0,85,0.00,,,0.00,weatherlink.com 1.10,2013-01-24 07:01:00,
2013-01-24 02:16:00,17.5,14.0,30.30,NNE,19,0.0,7.0,86,0.00,,,0.00,weatherlink.com 1.10,2013-01-24 07:16:00,
2013-01-24 02:31:00,17.1,14.0,30.31,SW,234,0.0,5.0,86,0.00,,,0.00,weatherlink.com 1.10,2013-01-24 07:31:00,
2013-01-24 02:46:00,17.2,14.0,30.32,WSW,252,0.0,3.0,88,0.00,,,0.00,weatherlink.com 1.10,2013-01-24 07:46:00,
2013-01-24 03:01:00,17.4,14.0,30.34,West,261,6.0,10.0,87,0.00,,,0.00,weatherlink.com 1.10,2013-01-24 08:01:00,
2013-01-24 03:16:00,17.0,14.0,30.35,WNW,285,0.0,7.0,86,0.00,,,0.00,weatherlink.com 1.10,2013-01-24 08:16:00,
2013-01-24 03:31:00,16.2,13.0,30.36,West,269,0.0,4.0,85,0.00,,,0.00,weatherlink.com 1.10,2013-01-24 08:31:00,
2013-01-24 03:46:00,15.4,12.0,30.38,WSW,238,0.0,3.0,85,0.00,,,0.00,weatherlink.com 1.10,2013-01-24 08:46:00,
2013-01-24 04:01:00,15.0,12.0,30.39,WSW,240,1.0,5.0,86,0.00,,,0.00,weatherlink.com 1.10,2013-01-24 09:01:00,
2013-01-24 04:16:00,15.4,12.0,30.40,West,268,2.0,9.0,85,0.00,,,0.00,weatherlink.com 1.10,2013-01-24 09:16:00,
2013-01-24 04:31:00,14.8,11.0,30.40,SW,229,2.0,4.0,83,0.00,,,0.00,weatherlink.com 1.10,2013-01-24 09:31:00,
2013-01-24 04:46:00,14.1,10.0,30.41,West,267,0.0,3.0,83,0.00,,,0.00,weatherlink.com 1.10,2013-01-24 09:46:00,
2013-01-24 05:01:00,13.3,9.0,30.41,West,280,0.0,0.0,83,0.00,,,0.00,weatherlink.com 1.10,2013-01-24 10:01:00,
2013-01-24 05:16:00,12.5,9.0,30.42,West,280,0.0,0.0,84,0.00,,,0.00,weatherlink.com 1.10,2013-01-24 10:16:00,
2013-01-24 05:31:00,11.6,8.0,30.43,West,280,0.0,0.0,85,0.00,,,0.00,weatherlink.com 1.10,2013-01-24 10:31:00,
2013-01-24 05:46:00,11.0,8.0,30.44,West,280,0.0,0.0,86,0.00,,,0.00,weatherlink.com 1.10,2013-01-24 10:46:00,
2013-01-24 06:01:00,10.8,8.0,30.45,West,280,0.0,0.0,87,0.00,,,0.00,weatherlink.com 1.10,2013-01-24 11:01:00,
2013-01-24 06:16:00,10.1,7.0,30.46,SW,219,0.0,1.0,86,0.00,,,0.00,weatherlink.com 1.10,2013-01-24 11:16:00,
2013-01-24 06:31:00,10.1,7.0,30.47,SW,219,0.0,1.0,86,0.00,,,0.00,weatherlink.com 1.10,2013-01-24 11:31:00,
2013-01-24 06:47:00,10.5,7.0,30.48,SW,218,0.0,1.0,87,0.00,,,0.00,weatherlink.com 1.10,2013-01-24 11:47:00,
2013-01-24 07:02:00,10.9,8.0,30.49,SSW,195,0.0,2.0,88,0.00,,,0.00,weatherlink.com 1.10,2013-01-24 12:02:00,
2013-01-24 07:17:00,11.0,8.0,30.50,SSW,207,0.0,1.0,88,0.00,,,0.00,weatherlink.com 1.10,2013-01-24 12:17:00,
2013-01-24 07:32:00,10.9,8.0,30.51,SSW,193,0.0,3.0,88,0.00,,,0.00,weatherlink.com 1.10,2013-01-24 12:32:00,
2013-01-24 07:47:00,10.8,8.0,30.52,SSW,195,0.0,2.0,88,0.00,,,0.00,weatherlink.com 1.10,2013-01-24 12:47:00,
2013-01-24 08:02:00,10.6,8.0,30.53,SSW,195,0.0,2.0,88,0.00,,,0.00,weatherlink.com 1.10,2013-01-24 13:02:00,
2013-01-24 08:17:00,10.3,8.0,30.52,SSW,203,0.0,0.0,88,0.00,,,0.00,weatherlink.com 1.10,2013-01-24 13:17:00,
2013-01-24 08:32:00,10.3,8.0,30.52,SSW,204,0.0,0.0,88,0.00,,,0.00,weatherlink.com 1.10,2013-01-24 13:32:00,
2013-01-24 08:47:00,10.6,8.0,30.54,WSW,254,0.0,0.0,89,0.00,,,0.00,weatherlink.com 1.10,2013-01-24 13:47:00,
2013-01-24 09:17:00,12.3,10.0,30.56,SW,220,1.0,1.0,90,0.00,,,0.00,weatherlink.com 1.10,2013-01-24 14:17:00,
2013-01-24 09:32:00,13.2,11.0,30.57,WSW,255,0.0,2.0,89,0.00,,,0.00,weatherlink.com 1.10,2013-01-24 14:32:00,
2013-01-24 09:47:00,14.0,11.0,30.59,SW,235,0.0,3.0,89,0.00,,,0.00,weatherlink.com 1.10,2013-01-24 14:47:00,
2013-01-24 10:02:00,15.2,12.0,30.60,West,266,0.0,4.0,88,0.00,,,0.00,weatherlink.com 1.10,2013-01-24 15:02:00,
2013-01-24 10:17:00,16.5,13.0,30.61,West,266,2.0,8.0,86,0.00,,,0.00,weatherlink.com 1.10,2013-01-24 15:17:00,
2013-01-24 10:32:00,16.9,13.0,30.62,WNW,284,7.0,11.0,83,0.00,,,0.00,weatherlink.com 1.10,2013-01-24 15:32:00,
2013-01-24 10:47:00,17.4,12.0,30.62,WNW,294,5.0,11.0,80,0.00,,,0.00,weatherlink.com 1.10,2013-01-24 15:47:00,
2013-01-24 11:02:00,18.1,12.0,30.63,West,279,2.0,7.0,78,0.00,,,0.00,weatherlink.com 1.10,2013-01-24 16:02:00,
2013-01-24 11:17:00,19.2,13.0,30.63,NNW,345,1.0,7.0,77,0.00,,,0.00,weatherlink.com 1.10,2013-01-24 16:17:00,
2013-01-24 11:32:00,20.2,13.0,30.64,North,9,1.0,5.0,73,0.00,,,0.00,weatherlink.com 1.10,2013-01-24 16:32:00,
2013-01-24 11:47:00,20.3,12.0,30.64,NW,321,1.0,5.0,71,0.00,,,0.00,weatherlink.com 1.10,2013-01-24 16:47:00,
2013-01-24 12:02:00,20.6,12.0,30.63,NNW,337,0.0,5.0,68,0.00,,,0.00,weatherlink.com 1.10,2013-01-24 17:02:00,
2013-01-24 12:17:00,20.8,11.0,30.62,NNW,334,3.0,6.0,65,0.00,,,0.00,weatherlink.com 1.10,2013-01-24 17:17:00,
2013-01-24 12:32:00,20.8,10.0,30.62,NNE,13,0.0,4.0,63,0.00,,,0.00,weatherlink.com 1.10,2013-01-24 17:32:00,
2013-01-24 12:47:00,21.3,9.0,30.61,NNE,19,0.0,4.0,60,0.00,,,0.00,weatherlink.com 1.10,2013-01-24 17:47:00,
2013-01-24 13:02:00,21.6,8.0,30.61,NNE,15,2.0,4.0,57,0.00,,,0.00,weatherlink.com 1.10,2013-01-24 18:02:00,
2013-01-24 13:17:00,21.7,8.0,30.59,NNE,17,0.0,5.0,57,0.00,,,0.00,weatherlink.com 1.10,2013-01-24 18:17:00,
2013-01-24 13:32:00,22.0,8.0,30.59,ENE,67,1.0,5.0,54,0.00,,,0.00,weatherlink.com 1.10,2013-01-24 18:32:00,
2013-01-24 13:47:00,22.4,8.0,30.59,North,355,1.0,3.0,54,0.00,,,0.00,weatherlink.com 1.10,2013-01-24 18:47:00,
2013-01-24 14:03:00,22.5,6.0,30.58,NE,36,2.0,5.0,50,0.00,,,0.00,weatherlink.com 1.10,2013-01-24 19:03:00,
2013-01-24 14:18:00,22.5,7.0,30.58,NNE,22,0.0,4.0,51,0.00,,,0.00,weatherlink.com 1.10,2013-01-24 19:18:00,
2013-01-24 14:33:00,23.1,7.0,30.57,NNE,14,0.0,3.0,51,0.00,,,0.00,weatherlink.com 1.10,2013-01-24 19:33:00,
2013-01-24 14:48:00,23.3,7.0,30.57,North,5,0.0,5.0,50,0.00,,,0.00,weatherlink.com 1.10,2013-01-24 19:48:00,
2013-01-24 15:03:00,23.6,7.0,30.57,NNW,337,0.0,4.0,50,0.00,,,0.00,weatherlink.com 1.10,2013-01-24 20:03:00,
2013-01-24 15:18:00,22.8,7.0,30.57,North,5,0.0,3.0,50,0.00,,,0.00,weatherlink.com 1.10,2013-01-24 20:18:00,
2013-01-24 15:33:00,22.2,6.0,30.56,ENE,66,1.0,4.0,51,0.00,,,0.00,weatherlink.com 1.10,2013-01-24 20:33:00,
2013-01-24 15:48:00,22.4,7.0,30.57,NNE,31,0.0,3.0,51,0.00,,,0.00,weatherlink.com 1.10,2013-01-24 20:48:00,
2013-01-24 16:03:00,22.2,7.0,30.56,NNE,24,0.0,4.0,53,0.00,,,0.00,weatherlink.com 1.10,2013-01-24 21:03:00,
2013-01-24 16:18:00,22.1,8.0,30.56,NNE,31,0.0,3.0,54,0.00,,,0.00,weatherlink.com 1.10,2013-01-24 21:18:00,
2013-01-24 16:33:00,22.0,8.0,30.55,North,5,2.0,3.0,54,0.00,,,0.00,weatherlink.com 1.10,2013-01-24 21:33:00,
2013-01-24 16:48:00,21.7,8.0,30.55,North,5,0.0,3.0,56,0.00,,,0.00,weatherlink.com 1.10,2013-01-24 21:48:00,
2013-01-24 17:03:00,21.5,8.0,30.55,NNE,20,0.0,4.0,56,0.00,,,0.00,weatherlink.com 1.10,2013-01-24 22:03:00,
2013-01-24 17:18:00,21.3,8.0,30.56,ENE,59,3.0,3.0,56,0.00,,,0.00,weatherlink.com 1.10,2013-01-24 22:18:00,
2013-01-24 17:33:00,21.0,7.0,30.55,NNE,28,1.0,3.0,56,0.00,,,0.00,weatherlink.com 1.10,2013-01-24 22:33:00,
2013-01-24 17:48:00,20.7,7.0,30.55,NNE,32,0.0,2.0,56,0.00,,,0.00,weatherlink.com 1.10,2013-01-24 22:48:00,
2013-01-24 18:03:00,20.4,8.0,30.55,NNE,26,1.0,3.0,58,0.00,,,0.00,weatherlink.com 1.10,2013-01-24 23:03:00,
2013-01-24 18:18:00,20.3,8.0,30.54,NNE,25,1.0,2.0,59,0.00,,,0.00,weatherlink.com 1.10,2013-01-24 23:18:00,
2013-01-24 18:33:00,20.1,9.0,30.54,NNE,19,0.0,2.0,61,0.00,,,0.00,weatherlink.com 1.10,2013-01-24 23:33:00,
2013-01-24 18:48:00,20.0,9.0,30.54,NNE,26,0.0,2.0,63,0.00,,,0.00,weatherlink.com 1.10,2013-01-24 23:48:00,
2013-01-24 19:03:00,20.0,10.0,30.54,NNE,22,0.0,2.0,65,0.00,,,0.00,weatherlink.com 1.10,2013-01-25 00:03:00,
2013-01-24 19:18:00,20.0,10.0,30.53,North,5,2.0,2.0,64,0.00,,,0.00,weatherlink.com 1.10,2013-01-25 00:18:00,
2013-01-24 19:33:00,19.9,10.0,30.53,NNE,22,0.0,4.0,65,0.00,,,0.00,weatherlink.com 1.10,2013-01-25 00:33:00,
2013-01-24 19:48:00,19.8,10.0,30.53,NE,36,0.0,3.0,65,0.00,,,0.00,weatherlink.com 1.10,2013-01-25 00:48:00,
2013-01-24 20:03:00,19.9,10.0,30.52,NE,35,0.0,4.0,66,0.00,,,0.00,weatherlink.com 1.10,2013-01-25 01:03:00,
2013-01-24 20:18:00,19.8,10.0,30.52,NNE,25,1.0,3.0,67,0.00,,,0.00,weatherlink.com 1.10,2013-01-25 01:18:00,
2013-01-24 20:33:00,19.8,10.0,30.52,NNW,344,2.0,4.0,67,0.00,,,0.00,weatherlink.com 1.10,2013-01-25 01:33:00,
2013-01-24 20:48:00,19.7,10.0,30.50,NNE,19,3.0,5.0,67,0.00,,,0.00,weatherlink.com 1.10,2013-01-25 01:48:00,
2013-01-24 21:03:00,19.6,10.0,30.50,NNE,22,1.0,5.0,67,0.00,,,0.00,weatherlink.com 1.10,2013-01-25 02:03:00,
2013-01-24 21:18:00,19.6,11.0,30.49,NNE,22,1.0,3.0,68,0.00,,,0.00,weatherlink.com 1.10,2013-01-25 02:18:00,
2013-01-24 21:33:00,19.4,10.0,30.49,NNE,26,3.0,3.0,68,0.00,,,0.00,weatherlink.com 1.10,2013-01-25 02:33:00,
2013-01-24 21:48:00,19.3,10.0,30.49,NNE,22,0.0,3.0,68,0.00,,,0.00,weatherlink.com 1.10,2013-01-25 02:48:00,
2013-01-24 22:03:00,19.4,10.0,30.48,NNE,30,1.0,4.0,68,0.00,,,0.00,weatherlink.com 1.10,2013-01-25 03:03:00,
2013-01-24 22:18:00,19.4,11.0,30.47,NE,49,1.0,6.0,69,0.00,,,0.00,weatherlink.com 1.10,2013-01-25 03:18:00,
2013-01-24 22:33:00,19.5,11.0,30.47,NE,34,0.0,6.0,69,0.00,,,0.00,weatherlink.com 1.10,2013-01-25 03:33:00,
2013-01-24 22:48:00,19.5,11.0,30.46,NNE,14,1.0,5.0,69,0.00,,,0.00,weatherlink.com 1.10,2013-01-25 03:48:00,
2013-01-24 23:03:00,19.6,11.0,30.45,NE,45,2.0,8.0,69,0.00,,,0.00,weatherlink.com 1.10,2013-01-25 04:03:00,
2013-01-24 23:18:00,19.7,11.0,30.45,NE,51,1.0,10.0,70,0.00,,,0.00,weatherlink.com 1.10,2013-01-25 04:18:00,
2013-01-24 23:33:00,19.7,12.0,30.45,NNE,33,1.0,4.0,71,0.00,,,0.00,weatherlink.com 1.10,2013-01-25 04:33:00,
2013-01-24 23:48:00,19.7,12.0,30.45,NNE,24,1.0,5.0,71,0.00,,,0.00,weatherlink.com 1.10,2013-01-25 04:48:00,